User: anonymous   Login
Location: Taipo
(41.0000°S, 175.9500°E)
Time: 14:05:49
(UTC+00:00)
Language:

Cosmos 1300 - Orbit

View from above orbital plane
View from above orbital plane
View from above satellite
View from above satellite

Ground track
Ground track

The orbit data is extracted from the following two-line orbital elements,

1 12785U 81082A   24173.72143773  .00011698  00000-0  36362-3 0  9991
2 12785  82.4970  49.2404 0001619  76.4461 283.6961 15.33204680340636
Epoch (UTC): 21 June 2024 17:18:52
Eccentricity: 0.0001619
inclination: 82.4970°
perigee height: 465 km
apogee height: 467 km
right ascension of ascending node: 49.2404°
argument of perigee: 76.4461°
revolutions per day: 15.33204680
mean anomaly at epoch: 283.6961°
orbit number at epoch: 34063

The dashed part of the orbit path shows where the satellite is in the earth's shadow,  

DLR